Flag for Oman Weather past 2 weeks in Salalah, Oman

Now
81 °F

Warm.


Feels Like: 83 °F
Forecast: 71 / 84 °F
Wind: 6 mph from South

Location: Salalah Airport

Current Time: Mar 6, 2015 at 11:34:57 AM

Latest Report: Mar 6, 2015 at 10:50 AM


Visibility: N/A

Pressure: 30.04 "Hg

Humidity: 66%

Dew point: 68 °F

Location of SalalahLocation

Historic Weather in Salalah — Graph

°F

Salalah temperature yesterday

Maximum temperature yesterday: 81 °F (at 1:50 PM)
Minimum temperature yesterday: 70 °F (at 6:50 AM)
Average temperature yesterday: 76 °F

Past Weeks' High & Low Weather Summary

 TemperatureHumidityPressure
High86 °F (Feb 23, 2:50 PM)83% (Feb 20, 6:50 AM)30.09 "Hg (Feb 20, 6:50 AM)
Low64 °F (Feb 26, 6:50 AM)8% (Feb 25, 12:50 PM)29.83 "Hg (Feb 19, 2:50 PM)
Average76 °F48%29.95 "Hg
* Reported Feb 19 9:50 AM — Mar 6 9:50 AM, Salalah, Weather by CustomWeather, © 2015

Note: Actual official high and low records may vary slightly from our data, if they occured in-between our weather recording intervals... More about our weather records

Advertising

Salalah weather history for previous 24 hours

 ConditionsComfort  
Time TempWeatherWind HumidityBarometerVisibility
9:50 AM
Fri, Mar 6
79 °FWarm.1 mph70%30.07 "HgN/A
8:50 AM75 °FMild.2 mph65%30.04 "HgN/A
7:50 AM72 °FMild.2 mph61%30.01 "HgN/A
6:50 AM70 °FMild.3 mph46%29.98 "HgN/A
5:50 AM70 °FMild.3 mph60%29.95 "HgN/A
4:50 AM70 °FMild.3 mph69%29.95 "HgN/A
3:50 AM70 °FMild.No wind69%29.95 "HgN/A
2:50 AM72 °FMild.2 mph69%29.95 "HgN/A
1:50 AM72 °FMild.5 mph73%29.95 "HgN/A
12:50 AM73 °FMild.6 mph74%29.98 "HgN/A
11:50 PM
Thu, Mar 5
73 °FMild.3 mph74%29.98 "HgN/A
10:50 PM73 °FMild.No wind78%29.98 "HgN/A
9:50 PM75 °FMild.1 mph74%29.98 "HgN/A
8:50 PM75 °FClear.No wind74%29.98 "Hg10 mi
7:50 PM75 °FMild.3 mph74%29.95 "HgN/A
6:50 PM77 °FClear.5 mph69%29.92 "Hg10 mi
5:50 PM79 °FWarm.6 mph65%29.92 "HgN/A
4:50 PM79 °FWarm.8 mph61%29.89 "HgN/A
3:50 PM79 °FWarm.13 mph61%29.89 "HgN/A
2:50 PM81 °FWarm.14 mph58%29.89 "HgN/A
1:50 PM81 °FWarm.14 mph58%29.92 "HgN/A
12:50 PM79 °FWarm.14 mph61%29.95 "HgN/A
11:50 AM79 °FWarm.13 mph61%29.98 "HgN/A
Weather by CustomWeather, © 2015

See weather overviewHow to use our weather pages